Welcome to Northern Hawkes Bay. New Zealand.
PWS Header
      nz Flag



Hit Counter


W3C Valid W3C Valid logo


    Wairoa

Select any of the Stations below to visit their websites.










Historic Data from Weather Underground
Select the location of interest below. Wairoa is the default. Please have patience, this Data is slow to load in.
Northern Hawkes Bay Historical Data
Daily Summary for January 14, 2017 Units:  English    Metric   Both
« Previous Day
Next Day »
Daily Weekly Monthly Yearly Custom
  High: Low: Average:
Temperature: 87.6 °F 57 °F 70.5 °F
Dew Point: 61.2 °F 50.4 °F 56.5 °F
Humidity: 97% 35% 65%
Wind Speed: 11.4mph 0mph 3.5mph
Wind Gust: 17.4mph - -
Wind- - WSW
Pressure: 29.9 in 29.7 in -
Precipitation: 0 in    
Historical Graphs
 
 
Tabular Data for January 14, 2017
Time Temperature Dew Point Pressure Wind Wind Speed Wind Gust Humidity Rainfall Rate (Hourly) solar
00:01 59.5 °F 55.9 °F 29.8 in Calm     88% 0 in 0 W/m2
00:06 59.7 °F 56.1 °F 29.8 in NNW 0.7 mph 1.6 mph 88% 0 in 0 W/m2
00:11 59.7 °F 56.5 °F 29.8 in Calm   2.2 mph 89% 0 in 0 W/m2
00:16 59.7 °F 56.5 °F 29.8 in Calm   2.2 mph 89% 0 in 0 W/m2
00:21 59.5 °F 56.3 °F 29.8 in Calm   0.7 mph 89% 0 in 0 W/m2
00:26 59.5 °F 56.7 °F 29.8 in Calm   1.6 mph 90% 0 in 0 W/m2
00:31 59.5 °F 56.7 °F 29.8 in NNW 0.7 mph 1.6 mph 90% 0 in 0 W/m2
00:36 59.5 °F 56.7 °F 29.8 in Calm   1.6 mph 90% 0 in 0 W/m2
00:41 59.5 °F 56.7 °F 29.8 in Calm   1.6 mph 90% 0 in 0 W/m2
00:46 59.5 °F 56.8 °F 29.8 in Calm   1.6 mph 91% 0 in 0 W/m2
00:51 59.4 °F 56.7 °F 29.8 in Calm     91% 0 in 0 W/m2
00:56 59.4 °F 56.7 °F 29.8 in Calm     91% 0 in 0 W/m2
01:01 59.5 °F 56.8 °F 29.8 in Calm     91% 0 in 0 W/m2
01:06 59.5 °F 56.8 °F 29.8 in Calm     91% 0 in 0 W/m2
01:11 59.5 °F 56.8 °F 29.8 in Calm     91% 0 in 0 W/m2
01:27 59 °F 56.5 °F 29.8 in Calm     91% 0 in 0 W/m2
01:33 59 °F 56.7 °F 29.8 in Calm     92% 0 in 0 W/m2
01:38 58.8 °F 56.8 °F 29.8 in NNW 1.6 mph 3.1 mph 93% 0 in 0 W/m2
01:43 58.6 °F 56.7 °F 29.8 in NNW 1.6 mph 3.1 mph 93% 0 in 0 W/m2
01:48 58.5 °F 56.5 °F 29.8 in NNW 0.7 mph 3.1 mph 93% 0 in 0 W/m2
01:54 58.1 °F 56.5 °F 29.8 in NNW 0.7 mph 3.1 mph 94% 0 in 0 W/m2
01:59 57.9 °F 56.1 °F 29.8 in NNW 1.6 mph 2.2 mph 94% 0 in 0 W/m2
02:04 57.9 °F 56.1 °F 29.8 in NNW 2.2 mph 3.1 mph 94% 0 in 0 W/m2
02:09 57.7 °F 56.3 °F 29.8 in NNW 3.1 mph 3.8 mph 95% 0 in 0 W/m2
02:14 57.7 °F 56.3 °F 29.8 in North 2.2 mph 3.8 mph 95% 0 in 0 W/m2
02:19 57.6 °F 56.5 °F 29.8 in NNW 3.8 mph 5.4 mph 96% 0 in 0 W/m2
02:24 57.4 °F 56.3 °F 29.8 in Calm   5.4 mph 96% 0 in 0 W/m2
02:29 57.2 °F 56.1 °F 29.8 in North 0.7 mph 5.4 mph 96% 0 in 0 W/m2
02:34 57.4 °F 56.3 °F 29.8 in North 1.6 mph 2.2 mph 96% 0 in 0 W/m2
02:39 57.4 °F 56.3 °F 29.8 in NNW 1.6 mph 3.1 mph 96% 0 in 0 W/m2
02:44 57.4 °F 56.5 °F 29.8 in NW 2.2 mph 4.5 mph 97% 0 in 0 W/m2
02:49 57.2 °F 56.1 °F 29.8 in NW 1.6 mph 4.5 mph 96% 0 in 0 W/m2
02:54 57.2 °F 56.1 °F 29.8 in NNW 2.2 mph 4.5 mph 96% 0 in 0 W/m2
02:59 57.2 °F 56.1 °F 29.8 in North 0.7 mph 3.8 mph 96% 0 in 0 W/m2
03:04 57.4 °F 56.3 °F 29.8 in Calm   3.8 mph 96% 0 in 0 W/m2
03:09 57.4 °F 56.5 °F 29.8 in North 2.2 mph 3.1 mph 97% 0 in 0 W/m2
03:14 57.6 °F 56.7 °F 29.8 in NNE 1.6 mph 3.1 mph 97% 0 in 0 W/m2
03:19 57.4 °F 56.3 °F 29.8 in NNE 2.2 mph 3.8 mph 96% 0 in 0 W/m2
03:24 57.4 °F 56.3 °F 29.8 in Calm   3.8 mph 96% 0 in 0 W/m2
03:29 57.4 °F 56.3 °F 29.8 in North 1.6 mph 3.8 mph 96% 0 in 0 W/m2
03:34 57.2 °F 56.1 °F 29.8 in North 1.6 mph 3.1 mph 96% 0 in 0 W/m2
03:39 57.2 °F 56.1 °F 29.8 in NNE 0.7 mph 3.1 mph 96% 0 in 0 W/m2
03:44 57.2 °F 56.1 °F 29.8 in NNW 0.7 mph 3.1 mph 96% 0 in 0 W/m2
03:49 57.2 °F 56.1 °F 29.8 in NW 1.6 mph 3.1 mph 96% 0 in 0 W/m2
03:54 57.2 °F 56.1 °F 29.8 in WNW 1.6 mph 3.8 mph 96% 0 in 0 W/m2
03:59 57 °F 55.9 °F 29.8 in NW 1.6 mph 3.8 mph 96% 0 in 0 W/m2
04:04 57 °F 55.9 °F 29.8 in NW 2.2 mph 3.8 mph 96% 0 in 0 W/m2
04:09 57 °F 55.9 °F 29.8 in NW 2.2 mph 3.8 mph 96% 0 in 0 W/m2
04:14 57 °F 56.1 °F 29.8 in NW 1.6 mph 4.5 mph 97% 0 in 0 W/m2
04:19 57.2 °F 56.1 °F 29.8 in NNW 0.7 mph 4.5 mph 96% 0 in 0 W/m2
04:24 57.2 °F 55.8 °F 29.8 in NNW 3.1 mph 4.5 mph 95% 0 in 0 W/m2
04:29 57.4 °F 55.9 °F 29.8 in NNW 1.6 mph 4.5 mph 95% 0 in 0 W/m2
04:34 57.4 °F 55.9 °F 29.8 in NNW 1.6 mph 4.5 mph 95% 0 in 0 W/m2
04:39 57.7 °F 56.3 °F 29.8 in North 1.6 mph 3.8 mph 95% 0 in 0 W/m2
04:44 57.9 °F 56.5 °F 29.8 in NNW 1.6 mph 3.8 mph 95% 0 in 0 W/m2
04:49 57.9 °F 56.5 °F 29.8 in NNW 2.2 mph 3.8 mph 95% 0 in 0 W/m2
04:54 58.1 °F 56.5 °F 29.8 in NNW 3.8 mph 5.4 mph 94% 0 in 0 W/m2
04:59 58.1 °F 56.5 °F 29.8 in NNW 3.1 mph 5.4 mph 94% 0 in 0 W/m2
05:04 57.9 °F 56.1 °F 29.8 in NNW 1.6 mph 4.5 mph 94% 0 in 0 W/m2
05:09 57.9 °F 56.1 °F 29.8 in NNW 2.2 mph 4.5 mph 94% 0 in 0 W/m2
05:14 57.7 °F 55.9 °F 29.8 in NNW 0.7 mph 3.8 mph 94% 0 in 0 W/m2
05:19 57.7 °F 55.9 °F 29.8 in NNW 1.6 mph 4.5 mph 94% 0 in 0 W/m2
05:24 57.9 °F 56.1 °F 29.8 in NNW 1.6 mph 4.5 mph 94% 0 in 0 W/m2
05:29 57.9 °F 56.1 °F 29.8 in NNW 0.7 mph 3.8 mph 94% 0 in 0 W/m2
05:34 58.1 °F 56.5 °F 29.9 in North 2.2 mph 3.1 mph 94% 0 in 0 W/m2
05:39 58.3 °F 56.7 °F 29.9 in NNW 0.7 mph 3.1 mph 94% 0 in 0 W/m2
05:44 58.1 °F 56.5 °F 29.9 in NNW 1.6 mph 3.1 mph 94% 0 in 0 W/m2
05:49 58.1 °F 56.5 °F 29.9 in NW 2.2 mph 3.1 mph 94% 0 in 0 W/m2
05:54 57.9 °F 56.1 °F 29.9 in NNW 0.7 mph 3.1 mph 94% 0 in 0 W/m2
05:59 58.1 °F 56.5 °F 29.9 in NNW 2.2 mph 3.8 mph 94% 0 in 0 W/m2
06:04 58.1 °F 56.5 °F 29.9 in NNW 2.2 mph 3.8 mph 94% 0 in 0 W/m2
06:09 58.1 °F 56.5 °F 29.9 in North 2.2 mph 3.8 mph 94% 0 in 1 W/m2
06:14 57.9 °F 56.1 °F 29.9 in NNW 2.2 mph 6.9 mph 94% 0 in 3 W/m2
06:19 58.1 °F 56.1 °F 29.9 in NNW 2.2 mph 6.9 mph 93% 0 in 6 W/m2
06:24 58.3 °F 55.9 °F 29.9 in North 0.7 mph 4.5 mph 92% 0 in 12 W/m2
06:29 58.3 °F 55.9 °F 29.9 in NNE 2.2 mph 3.1 mph 92% 0 in 13 W/m2
06:34 58.5 °F 56.1 °F 29.9 in NNW 2.2 mph 3.8 mph 92% 0 in 14 W/m2
06:39 58.8 °F 56.1 °F 29.9 in NW 1.6 mph 3.8 mph 91% 0 in 14 W/m2
06:44 59 °F 56.1 °F 29.9 in NW 1.6 mph 3.8 mph 90% 0 in 21 W/m2
06:49 59.2 °F 55.9 °F 29.9 in NNW 1.6 mph 3.8 mph 89% 0 in 33 W/m2
07:05 59.5 °F 55.9 °F 29.9 in NW 3.1 mph 5.4 mph 88% 0 in 50 W/m2
07:10 59.7 °F 55.9 °F 29.9 in NW 3.1 mph 5.4 mph 87% 0 in 65 W/m2
07:15 59.7 °F 55.9 °F 29.9 in NW 3.8 mph 6 mph 87% 0 in 61 W/m2
07:20 59.9 °F 55.8 °F 29.9 in NNW 3.8 mph 7.6 mph 86% 0 in 75 W/m2
07:25 59.9 °F 55.8 °F 29.9 in North 2.2 mph 7.6 mph 86% 0 in 81 W/m2
07:30 60.1 °F 55.9 °F 29.9 in North 1.6 mph 5.4 mph 86% 0 in 88 W/m2
07:35 60.4 °F 55.9 °F 29.9 in North 3.1 mph 4.5 mph 85% 0 in 105 W/m2
07:40 60.6 °F 55.8 °F 29.9 in North 2.2 mph 6 mph 84% 0 in 126 W/m2
07:45 61 °F 55.8 °F 29.9 in North 1.6 mph 6 mph 83% 0 in 161 W/m2
07:50 61.7 °F 56.5 °F 29.9 in North 2.2 mph 5.4 mph 83% 0 in 149 W/m2
07:55 62.2 °F 56.7 °F 29.9 in NNW 2.2 mph 4.5 mph 82% 0 in 178 W/m2
08:00 63 °F 57 °F 29.9 in NNW 2.2 mph 4.5 mph 81% 0 in 149 W/m2
08:05 63.7 °F 57.7 °F 29.9 in Calm   3.8 mph 81% 0 in 203 W/m2
08:10 64.9 °F 57.9 °F 29.9 in NNW 1.6 mph 3.8 mph 78% 0 in 228 W/m2
08:15 65.5 °F 57.7 °F 29.9 in NNW 1.6 mph 3.8 mph 76% 0 in 233 W/m2
08:20 66.2 °F 57.7 °F 29.9 in Calm   3.8 mph 74% 0 in 252 W/m2
08:25 67.5 °F 58.8 °F 29.9 in North 0.7 mph 3.1 mph 74% 0 in 250 W/m2
08:30 68.5 °F 58.5 °F 29.9 in NNE 2.2 mph 3.1 mph 70% 0 in 250 W/m2
08:35 69.1 °F 58.5 °F 29.9 in NNE 0.7 mph 3.1 mph 69% 0 in 228 W/m2
08:40 69.4 °F 58.5 °F 29.9 in Calm   3.1 mph 68% 0 in 341 W/m2
08:45 71.6 °F 59.2 °F 29.9 in NNE 3.1 mph 3.8 mph 65% 0 in 399 W/m2
08:50 70.5 °F 57.4 °F 29.9 in Calm   4.5 mph 63% 0 in 365 W/m2
08:55 70.3 °F 57.6 °F 29.9 in Calm   5.4 mph 64% 0 in 388 W/m2
09:00 71.8 °F 58.5 °F 29.9 in Calm   5.4 mph 63% 0 in 418 W/m2
09:05 72.7 °F 58.5 °F 29.9 in ENE 0.7 mph 3.1 mph 61% 0 in 423 W/m2
09:10 72 °F 56.5 °F 29.9 in East 2.2 mph 5.4 mph 58% 0 in 395 W/m2
09:15 70.3 °F 56.3 °F 29.9 in East 0.7 mph 7.6 mph 61% 0 in 419 W/m2
09:20 69.8 °F 56.7 °F 29.9 in ENE 4.5 mph 8.3 mph 63% 0 in 433 W/m2
09:25 70.2 °F 56.7 °F 29.9 in ENE 3.8 mph 8.3 mph 62% 0 in 363 W/m2
09:30 70.2 °F 57 °F 29.9 in ENE 2.2 mph 8.3 mph 63% 0 in 416 W/m2
09:35 70.7 °F 57.6 °F 29.9 in NE 0.7 mph 6.9 mph 63% 0 in 545 W/m2
09:40 73 °F 58.8 °F 29.9 in NE 2.2 mph 6.9 mph 61% 0 in 510 W/m2
09:45 73.4 °F 57.4 °F 29.9 in SE 1.6 mph 5.4 mph 57% 0 in 252 W/m2
09:50 72.3 °F 58.1 °F 29.9 in Calm   5.4 mph 61% 0 in 343 W/m2
09:55 72.1 °F 57.9 °F 29.9 in SSE 4.5 mph 6.9 mph 61% 0 in 412 W/m2
10:00 71.6 °F 57.9 °F 29.9 in SE 3.1 mph 8.3 mph 62% 0 in 424 W/m2
10:05 71.2 °F 57.6 °F 29.9 in SSE 2.2 mph 8.3 mph 62% 0 in 338 W/m2
10:10 72 °F 57.7 °F 29.9 in SSE 3.1 mph 6.9 mph 61% 0 in 448 W/m2
10:15 71.4 °F 57.7 °F 29.9 in SE 3.1 mph 7.6 mph 62% 0 in 485 W/m2
10:20 71.4 °F 57.4 °F 29.9 in ESE 1.6 mph 7.6 mph 61% 0 in 487 W/m2
10:25 71.8 °F 57.6 °F 29.9 in ESE 4.5 mph 7.6 mph 61% 0 in 534 W/m2
10:30 71.1 °F 57.4 °F 29.9 in ESE 3.8 mph 8.3 mph 62% 0 in 471 W/m2
10:35 70.9 °F 58.1 °F 29.8 in SE 2.2 mph 9.2 mph 64% 0 in 342 W/m2
10:40 71.2 °F 58.5 °F 29.8 in SSE 3.8 mph 9.2 mph 64% 0 in 600 W/m2
10:45 71.1 °F 58.3 °F 29.8 in SSE 1.6 mph 11.4 mph 64% 0 in 521 W/m2
10:50 71.4 °F 58.3 °F 29.8 in SSE 3.1 mph 11.4 mph 63% 0 in 627 W/m2
10:55 72 °F 58.3 °F 29.8 in SE 6 mph 9.2 mph 62% 0 in 635 W/m2
11:00 72.5 °F 58.3 °F 29.8 in SE 3.8 mph 8.3 mph 61% 0 in 561 W/m2
11:05 72.5 °F 58.3 °F 29.8 in SE 3.8 mph 8.3 mph 61% 0 in 653 W/m2
11:10 72.5 °F 58.3 °F 29.8 in SE 4.5 mph 9.2 mph 61% 0 in 724 W/m2
11:16 72.9 °F 58.6 °F 29.8 in SSE 4.5 mph 9.2 mph 61% 0 in 695 W/m2
11:21 73.9 °F 59.2 °F 29.8 in South 6 mph 8.3 mph 60% 0 in 807 W/m2
11:26 73.9 °F 57.4 °F 29.8 in WSW 6 mph 11.4 mph 56% 0 in 712 W/m2
11:31 74.7 °F 56.8 °F 29.8 in NW 4.5 mph 11.4 mph 54% 0 in 534 W/m2
11:36 75 °F 56.1 °F 29.8 in NE 6.9 mph 13.6 mph 52% 0 in 779 W/m2
11:41 75.6 °F 56.1 °F 29.8 in NE 5.4 mph 13.6 mph 51% 0 in 870 W/m2
11:46 75.9 °F 56.5 °F 29.8 in NE 8.3 mph 9.8 mph 51% 0 in 892 W/m2
11:51 76.8 °F 56.8 °F 29.8 in NE 6.9 mph 9.8 mph 50% 0 in 835 W/m2
11:56 76.5 °F 56.5 °F 29.8 in NE 5.4 mph 12.1 mph 50% 0 in 641 W/m2
12:01 76.5 °F 57 °F 29.8 in ENE 6.9 mph 12.1 mph 51% 0 in 758 W/m2
12:06 76.5 °F 57 °F 29.8 in ENE 6.9 mph 11.4 mph 51% 0 in 799 W/m2
12:11 77.2 °F 57 °F 29.8 in NE 3.8 mph 11.4 mph 50% 0 in 726 W/m2
12:16 77.9 °F 57.2 °F 29.8 in NNE 6 mph 8.3 mph 49% 0 in 816 W/m2
12:21 77.9 °F 57.2 °F 29.8 in NE 2.2 mph 9.8 mph 49% 0 in 806 W/m2
12:26 79.3 °F 57.4 °F 29.8 in ENE 2.2 mph 9.8 mph 47% 0 in 742 W/m2
12:31 79.3 °F 56.8 °F 29.8 in NNE 3.8 mph 8.3 mph 46% 0 in 733 W/m2
12:36 78.8 °F 56.8 °F 29.8 in North 5.4 mph 11.4 mph 47% 0 in 843 W/m2
12:41 79.2 °F 56.7 °F 29.8 in North 2.2 mph 11.4 mph 46% 0 in 859 W/m2
12:47 79 °F 56.5 °F 29.8 in North 6.9 mph 11.4 mph 46% 0 in 725 W/m2
12:53 79.5 °F 57 °F 29.8 in North 2.2 mph 11.4 mph 46% 0 in 847 W/m2
12:58 79.9 °F 57.9 °F 29.8 in North 3.1 mph 13.6 mph 47% 0 in 847 W/m2
13:03 79.7 °F 57 °F 29.8 in North 5.4 mph 13.6 mph 46% 0 in 849 W/m2
13:08 80.1 °F 57.6 °F 29.8 in North 4.5 mph 12.1 mph 46% 0 in 748 W/m2
13:13 79.9 °F 57.4 °F 29.8 in North 1.6 mph 9.8 mph 46% 0 in 619 W/m2
13:18 80.4 °F 57.7 °F 29.8 in North 6 mph 9.2 mph 46% 0 in 763 W/m2
13:23 80.1 °F 58.1 °F 29.8 in North 4.5 mph 8.3 mph 47% 0 in 1007 W/m2
13:28 81.7 °F 58.3 °F 29.8 in North 4.5 mph 9.2 mph 45% 0 in 862 W/m2
13:33 81.7 °F 57 °F 29.8 in North 4.5 mph 9.2 mph 43% 0 in 996 W/m2
13:38 81.5 °F 57.6 °F 29.8 in NW 0.7 mph 7.6 mph 44% 0 in 874 W/m2
13:43 82.2 °F 58.3 °F 29.8 in WNW 2.2 mph 6.9 mph 44% 0 in 815 W/m2
13:48 83.1 °F 59.5 °F 29.8 in WSW 3.8 mph 7.6 mph 45% 0 in 1038 W/m2
13:53 82.8 °F 59.9 °F 29.8 in SSE 3.8 mph 7.6 mph 46% 0 in 538 W/m2
13:58 80.8 °F 59.4 °F 29.8 in SSE 0.7 mph 7.6 mph 48% 0 in 465 W/m2
14:03 78.4 °F 59.9 °F 29.8 in SSE 4.5 mph 10.7 mph 53% 0 in 372 W/m2
14:08 77.5 °F 60.1 °F 29.8 in South 5.4 mph 10.7 mph 55% 0 in 352 W/m2
14:14 76.5 °F 60.1 °F 29.8 in SSE 5.4 mph 9.8 mph 57% 0 in 627 W/m2
14:19 77.4 °F 61 °F 29.8 in SSE 4.5 mph 10.7 mph 57% 0 in 769 W/m2
14:24 78.1 °F 60.1 °F 29.8 in SE 5.4 mph 11.4 mph 54% 0 in 1003 W/m2
14:29 78.8 °F 59.7 °F 29.8 in SE 3.8 mph 11.4 mph 52% 0 in 498 W/m2
14:34 78.6 °F 60.6 °F 29.8 in SE 8.3 mph 9.8 mph 54% 0 in 441 W/m2
14:39 77.5 °F 60.1 °F 29.8 in SSE 5.4 mph 10.7 mph 55% 0 in 359 W/m2
14:44 76.6 °F 60.8 °F 29.8 in South 8.3 mph 11.4 mph 58% 0 in 536 W/m2
14:49 76.5 °F 59.5 °F 29.8 in South 6.9 mph 11.4 mph 56% 0 in 693 W/m2
14:54 77.9 °F 59.4 °F 29.8 in SSE 4.5 mph 11.4 mph 53% 0 in 993 W/m2
14:59 80.2 °F 60.1 °F 29.8 in SE 4.5 mph 10.7 mph 50% 0 in 775 W/m2
15:04 81 °F 58.8 °F 29.7 in SE 2.2 mph 9.2 mph 47% 0 in 558 W/m2
15:09 80.6 °F 59.2 °F 29.7 in SE 4.5 mph 8.3 mph 48% 0 in 589 W/m2
15:14 80.8 °F 58.6 °F 29.7 in SSE 1.6 mph 8.3 mph 47% 0 in 756 W/m2
15:19 80.8 °F 58.1 °F 29.7 in South 3.8 mph 11.4 mph 46% 0 in 427 W/m2
15:24 81.1 °F 58.5 °F 29.7 in South 4.5 mph 11.4 mph 46% 0 in 625 W/m2
15:42 84 °F 61.2 °F 29.7 in South 3.8 mph 7.6 mph 46% 0 in 678 W/m2
15:47 83.5 °F 60.6 °F 29.7 in South 3.1 mph 7.6 mph 46% 0 in 657 W/m2
15:52 83.5 °F 60.6 °F 29.7 in SSE 3.1 mph 7.6 mph 46% 0 in 814 W/m2
15:57 84 °F 61.2 °F 29.7 in SSE 3.1 mph 6 mph 46% 0 in 750 W/m2
16:02 84.4 °F 60.8 °F 29.7 in SE 4.5 mph 7.6 mph 45% 0 in 717 W/m2
16:07 84 °F 60.4 °F 29.7 in SSE 4.5 mph 9.2 mph 45% 0 in 820 W/m2
16:12 85.3 °F 61 °F 29.7 in SSE 2.2 mph 9.2 mph 44% 0 in 711 W/m2
16:17 87.6 °F 60.4 °F 29.7 in South 4.5 mph 6.9 mph 40% 0 in 749 W/m2
16:22 86.2 °F 61.2 °F 29.7 in South 5.4 mph 7.6 mph 43% 0 in 619 W/m2
16:27 86 °F 58.8 °F 29.7 in SSE 2.2 mph 7.6 mph 40% 0 in 683 W/m2
16:32 86.7 °F 57.4 °F 29.7 in SE 3.8 mph 6 mph 37% 0 in 769 W/m2
16:37 85.3 °F 59 °F 29.7 in South 4.5 mph 9.2 mph 41% 0 in 417 W/m2
16:42 84 °F 60.4 °F 29.7 in Calm   9.2 mph 45% 0 in 648 W/m2
16:47 86.7 °F 56.7 °F 29.7 in WSW 3.8 mph 6.9 mph 36% 0 in 253 W/m2
16:52 84.6 °F 54 °F 29.7 in WNW 6.9 mph 9.8 mph 35% 0 in 224 W/m2
16:57 83.3 °F 54.3 °F 29.7 in NNW 3.8 mph 9.8 mph 37% 0 in 275 W/m2
17:03 83.3 °F 55 °F 29.7 in NNW 5.4 mph 13 mph 38% 0 in 666 W/m2
17:08 84 °F 55.8 °F 29.7 in North 7.6 mph 13 mph 38% 0 in 568 W/m2
17:13 85.8 °F 55.8 °F 29.7 in NNE 8.3 mph 13 mph 36% 0 in 521 W/m2
17:18 85.1 °F 55.2 °F 29.7 in NNE 4.5 mph 13.6 mph 36% 0 in 463 W/m2
17:23 84.7 °F 54.1 °F 29.7 in North 5.4 mph 13.6 mph 35% 0 in 483 W/m2
17:28 85.3 °F 55.4 °F 29.7 in North 9.2 mph 13 mph 36% 0 in 525 W/m2
17:33 85.5 °F 54.7 °F 29.7 in North 5.4 mph 11.4 mph 35% 0 in 493 W/m2
17:38 85.1 °F 54.3 °F 29.7 in NW 7.6 mph 13 mph 35% 0 in 335 W/m2
17:43 84.4 °F 55.2 °F 29.7 in NW 6.9 mph 13 mph 37% 0 in 513 W/m2
17:48 84.4 °F 54.7 °F 29.7 in NW 8.3 mph 13.6 mph 36% 0 in 385 W/m2
17:53 83.7 °F 54.7 °F 29.7 in NW 5.4 mph 15.2 mph 37% 0 in 361 W/m2
17:58 83.1 °F 54.1 °F 29.7 in NW 7.6 mph 15.2 mph 37% 0 in 260 W/m2
18:03 82.2 °F 52.7 °F 29.7 in NW 6.9 mph 13 mph 36% 0 in 200 W/m2
18:08 82 °F 54.7 °F 29.7 in NW 8.3 mph 13 mph 39% 0 in 199 W/m2
18:13 82 °F 54 °F 29.7 in NW 9.2 mph 14.5 mph 38% 0 in 203 W/m2
18:18 81.1 °F 54 °F 29.7 in NW 4.5 mph 14.5 mph 39% 0 in 154 W/m2
18:23 80.8 °F 54.9 °F 29.7 in NW 6 mph 14.5 mph 41% 0 in 158 W/m2
18:28 80.6 °F 54.9 °F 29.7 in NNW 6.9 mph 9.2 mph 41% 0 in 137 W/m2
18:33 80.2 °F 54.3 °F 29.7 in NNW 3.8 mph 10.7 mph 41% 0 in 127 W/m2
18:38 80.1 °F 53.6 °F 29.7 in NNW 4.5 mph 10.7 mph 40% 0 in 126 W/m2
18:43 79.9 °F 52.9 °F 29.7 in NW 5.4 mph 8.3 mph 39% 0 in 123 W/m2
18:48 79.3 °F 53.1 °F 29.7 in NW 4.5 mph 8.3 mph 40% 0 in 97 W/m2
18:53 79.2 °F 53.4 °F 29.7 in NW 4.5 mph 9.8 mph 41% 0 in 85 W/m2
18:58 79.2 °F 54.1 °F 29.7 in NNW 5.4 mph 9.8 mph 42% 0 in 78 W/m2
19:03 79 °F 52.5 °F 29.7 in NNW 6 mph 12.1 mph 40% 0 in 72 W/m2
19:08 78.8 °F 50.4 °F 29.7 in NW 6.9 mph 13.6 mph 37% 0 in 76 W/m2
19:13 78.4 °F 50.7 °F 29.7 in NW 11.4 mph 13.6 mph 38% 0 in 73 W/m2
19:18 78.3 °F 50.5 °F 29.7 in NNW 5.4 mph 14.5 mph 38% 0 in 63 W/m2
19:23 77.9 °F 51.1 °F 29.7 in NNW 6.9 mph 14.5 mph 39% 0 in 48 W/m2
19:28 77.5 °F 50.7 °F 29.7 in NNW 7.6 mph 16.8 mph 39% 0 in 55 W/m2
19:33 77.5 °F 51.3 °F 29.7 in NW 11.4 mph 17.4 mph 40% 0 in 56 W/m2
19:38 77.4 °F 52 °F 29.7 in NNW 8.3 mph 17.4 mph 41% 0 in 52 W/m2
19:43 77.2 °F 52.3 °F 29.7 in NNW 6.9 mph 14.5 mph 42% 0 in 42 W/m2
19:48 77.2 °F 53.1 °F 29.7 in NNW 10.7 mph 13.6 mph 43% 0 in 37 W/m2
19:53 77 °F 52.9 °F 29.7 in NNW 9.2 mph 13.6 mph 43% 0 in 28 W/m2
19:58 77 °F 52.9 °F 29.7 in NW 6.9 mph 13.6 mph 43% 0 in 18 W/m2
20:03 76.6 °F 53.1 °F 29.7 in NNW 7.6 mph 13.6 mph 44% 0 in 11 W/m2
20:08 76.5 °F 53.6 °F 29.7 in NNW 10.7 mph 14.5 mph 45% 0 in 8 W/m2
20:13 76.1 °F 53.2 °F 29.7 in NNW 11.4 mph 15.2 mph 45% 0 in 9 W/m2
20:18 75.9 °F 53.8 °F 29.7 in North 3.8 mph 15.2 mph 46% 0 in 7 W/m2
20:23 75.7 °F 54.1 °F 29.7 in NNW 9.2 mph 13.6 mph 47% 0 in 6 W/m2
20:28 75.4 °F 53.8 °F 29.7 in NNW 5.4 mph 13 mph 47% 0 in 4 W/m2
20:33 75.4 °F 53.8 °F 29.7 in NNW 6.9 mph 13 mph 47% 0 in 2 W/m2
20:38 75.2 °F 54.1 °F 29.7 in NNW 6.9 mph 12.1 mph 48% 0 in 1 W/m2
20:43 75 °F 54.7 °F 29.7 in North 5.4 mph 13 mph 49% 0 in 0 W/m2
20:48 74.8 °F 54.3 °F 29.7 in NNW 7.6 mph 13.6 mph 49% 0 in 0 W/m2
20:50 74.7 °F 54.9 °F 29.7 in NNW 6.9 mph 13.6 mph 50% 0 in 0 W/m2
20:55 74.7 °F 54.9 °F 29.7 in NNW 6 mph 13.6 mph 50% 0 in 0 W/m2
21:00 74.5 °F 55.2 °F 29.7 in NNW 8.3 mph 14.5 mph 51% 0 in 0 W/m2
21:05 74.5 °F 55.2 °F 29.7 in NNW 7.6 mph 15.9 mph 51% 0 in 0 W/m2
21:10 74.5 °F 55.8 °F 29.7 in North 6.9 mph 15.9 mph 52% 0 in 0 W/m2
21:15 74.3 °F 55.6 °F 29.7 in NNW 3.8 mph 15.2 mph 52% 0 in 0 W/m2
21:20 74.1 °F 55.4 °F 29.7 in NW 6.9 mph 15.2 mph 52% 0 in 0 W/m2
21:39 73.4 °F 54.7 °F 29.7 in North 3.8 mph 6.9 mph 52% 0 in 0 W/m2
21:44 73.4 °F 54.7 °F 29.7 in North 3.8 mph 10.7 mph 52% 0 in 0 W/m2
21:49 73.4 °F 54.7 °F 29.7 in North 3.8 mph 10.7 mph 52% 0 in 0 W/m2
21:54 73.4 °F 54.7 °F 29.7 in NNW 5.4 mph 11.4 mph 52% 0 in 0 W/m2
21:59 73.2 °F 55 °F 29.7 in NNW 3.1 mph 11.4 mph 53% 0 in 0 W/m2
22:04 73 °F 55.4 °F 29.7 in North 3.8 mph 10.7 mph 54% 0 in 0 W/m2
22:09 73 °F 55.4 °F 29.7 in NNW 5.4 mph 11.4 mph 54% 0 in 0 W/m2
22:14 73 °F 55.4 °F 29.7 in NNW 3.8 mph 11.4 mph 54% 0 in 0 W/m2
22:19 72.9 °F 55.8 °F 29.7 in NNW 3.8 mph 7.6 mph 55% 0 in 0 W/m2
22:24 72.7 °F 55.6 °F 29.7 in North 3.8 mph 6.9 mph 55% 0 in 0 W/m2
22:29 72.5 °F 55.4 °F 29.7 in NNE 1.6 mph 6.9 mph 55% 0 in 0 W/m2
22:34 72.3 °F 55.2 °F 29.7 in North 0.7 mph 6 mph 55% 0 in 0 W/m2
22:39 72 °F 55.4 °F 29.7 in North 3.1 mph 4.5 mph 56% 0 in 0 W/m2
22:44 71.8 °F 55.2 °F 29.7 in North 1.6 mph 4.5 mph 56% 0 in 0 W/m2
22:50 71.6 °F 55.6 °F 29.7 in NNE 3.1 mph 4.5 mph 57% 0 in 0 W/m2
22:56 71.4 °F 55.9 °F 29.7 in NNE 2.2 mph 4.5 mph 58% 0 in 0 W/m2
23:01 71.2 °F 56.1 °F 29.7 in NE 2.2 mph 5.4 mph 59% 0 in 0 W/m2
23:06 70.9 °F 55.9 °F 29.7 in NNE 3.8 mph 6 mph 59% 0 in 0 W/m2
23:11 71.2 °F 55.8 °F 29.7 in North 3.1 mph 6.9 mph 58% 0 in 0 W/m2
23:16 71.2 °F 55.8 °F 29.7 in NNW 3.1 mph 8.3 mph 58% 0 in 0 W/m2
23:21 71.1 °F 55.6 °F 29.7 in NW 5.4 mph 8.3 mph 58% 0 in 0 W/m2
23:26 71.2 °F 55.2 °F 29.7 in NW 6.9 mph 10.7 mph 57% 0 in 0 W/m2
23:31 71.4 °F 55.4 °F 29.7 in NNW 3.1 mph 10.7 mph 57% 0 in 0 W/m2
23:36 71.4 °F 54.9 °F 29.7 in North 4.5 mph 7.6 mph 56% 0 in 0 W/m2
23:41 71.4 °F 54.9 °F 29.7 in NNW 3.1 mph 7.6 mph 56% 0 in 0 W/m2
23:46 71.4 °F 54.9 °F 29.7 in NNW 1.6 mph 7.6 mph 56% 0 in 0 W/m2
23:51 71.2 °F 55.2 °F 29.7 in NNW 2.2 mph 7.6 mph 57% 0 in 0 W/m2
23:56 71.1 °F 55 °F 29.7 in NW 0.7 mph 4.5 mph 57% 0 in 0 W/m2
Northern Hawkes Bay. New Zealand Historic Data
Compliments of Weather Underground - 2 mb